Regional Weather Roundup
Issued by NWS

Home | Current Version | Previous Version | Graphics & Text | Print | Product List | Glossary On
Versions: 1 2 3 4 5 6 7 8 9 10 11 12 13 14 15 16 17 18 19 20 21 22 23 24 25 26 27 28 29 30 31 32 33 34 35 36 37 38 39 40 41 42 43 44 45 46 47 48 49 50
000
ASUS43 KIND 202300
RWRIN

WEATHER ROUNDUP FOR INDIANA
NATIONAL WEATHER SERVICE INDIANAPOLIS IN
700 PM EDT FRI OCT 20 2017

NOTE: "FAIR" INDICATES FEW OR NO CLOUDS BELOW 12,000 FEET WITH NO
SIGNIFICANT WEATHER AND/OR OBSTRUCTIONS TO VISIBILITY.

* - STATION DOES NOT REPORT WEATHER SUCH AS PRECIPITATION OR FOG.

+ - STATION NOT QUALITY CONTROLLED BY THE NATIONAL WEATHER SERVICE.
    USE DATA WITH CAUTION...ESPECIALLY DEWPOINT AND RELATIVE
    HUMIDITY OBSERVATIONS.

INZ001>003-010>013-019-020-210000-
NORTHWEST INDIANA

CITY           SKY/WX    TMP DP  RH WIND       PRES   REMARKS
GARY /AIRPORT/ MOCLDY    73  48  40 S6        30.08S
KNOX *+        CLEAR     70  50  49 S6        30.10S
MONTICELLO +   CLEAR     69  48  48 S3        30.12S
RENSSELAER +   CLEAR     70  39  32 S7        30.11S

$$

LMZ046-743>745-210000-
SOUTHERN LAKE MICHIGAN

STATION/POSITION TIME  TEMP    WIND        PRES    WAVE
                       AIR SEA DIR/SP/G            HT
                 (UTC) (F)     (DEG/KT/KT) (MB)    (FT)
BURNS HARBOR     2240   73     190/ 10/ 15 1019.0R
MICHIGAN CITY    2230   74     150/  7/  8   N/A
5NW MICH CITY    2250   66 59  170/  6/  8   N/A     1

$$

INZ004-005-014>016-021>024-210000-
NORTH CENTRAL INDIANA

CITY           SKY/WX    TMP DP  RH WIND       PRES   REMARKS
GOSHEN         CLEAR     67  50  54 S8        30.12F
PERU/GRISSOM   CLEAR     67  50  53 S6        30.13S
SOUTH BEND     CLEAR     67  50  54 S7        30.12S

$$

INZ006>009-017-018-025>027-210000-
NORTHEAST INDIANA

CITY           SKY/WX    TMP DP  RH WIND       PRES   REMARKS
FORT WAYNE     MOCLDY    69  49  48 S6        30.15S
KENDALLVILLE + CLEAR     68  51  55 S5        30.15S

$$

INZ028-029-035-036-043>045-051>053-210000-
WEST CENTRAL INDIANA

CITY           SKY/WX    TMP DP  RH WIND       PRES   REMARKS
LAFAYETTE      CLEAR     69  49  48 S5        30.12R
TERRE HAUTE    CLOUDY    67  49  52 S7        30.13F

$$

INZ030>032-037>040-046>048-054>057-064-065-210000-
CENTRAL INDIANA

CITY           SKY/WX    TMP DP  RH WIND       PRES   REMARKS
COLUMBUS       CLEAR     68  43  40 S6        30.17S
GREENWOOD *+   CLEAR     73  51  46 S5        30.17S
INDIANAPOLIS   MOCLDY    67  48  50 S7        30.16R
-EAGLE CREEK   CLEAR     70  48  45 S5        30.15R
KOKOMO +       CLEAR     66  51  58 S6        30.15S
MT COMFORT *+  CLEAR     66  54  63 S5        30.17S
SHELBYVILLE    CLEAR     70  47  43 S6        30.16S

$$

INZ033-034-041-042-049-050-058-059-210000-
EAST CENTRAL INDIANA

CITY           SKY/WX    TMP DP  RH WIND       PRES   REMARKS
MUNCIE         CLEAR     72  46  39 S5        30.16S
RICHMOND +     CLEAR     64  50  59 S6        30.20S

$$

INZ060-061-067>069-081>083-085>088-210000-
SOUTHWEST INDIANA

CITY           SKY/WX    TMP DP  RH WIND       PRES   REMARKS
EVANSVILLE     CLOUDY    71  48  43 CALM      30.15S
HUNTINGBURG +  CLEAR     69  52  54 SE5       30.15F

$$

INZ062-063-066-070>080-084-089>092-210000-
SOUTH CENTRAL AND SOUTHEAST INDIANA

CITY           SKY/WX    TMP DP  RH WIND       PRES   REMARKS
BLOOMINGTON    CLEAR     69  48  47 SE3       30.16S
MADISON *+     CLEAR     66  50  55 CALM      30.20S
SEYMOUR +      CLEAR     70  48  46 S5        30.18

$$





USA.gov is the U.S. government's official web portal to all federal, state and local government web resources and services.